Voltar ao catálogo

COSMOS 1823 DEB

AtivoLEO
NORAD 26982·DEBRIS·🇷🇺 Russia

Lançado Feb 20, 1987 de Plesetsk Cosmodrome

Loading…

Próximas Passagens (próximas 24 horas)

TLE

AtualizadoSource: Space-Track

Época: Sep 13, 2026, 11:24 UTC

1 26982U 87020DU  26256.47546344  .00000048  00000-0  47490-3 0  9991
2 26982  73.5980 266.7950 0026147 106.0675  48.1635 12.42699193204011

Acompanhe COSMOS 1823 DEB em tempo real com AllMySat

Download on the App Store